TimeEST,TemperatureF,Dew PointF,Humidity,Sea Level PressureIn,VisibilityMPH,Wind Direction,Wind SpeedMPH,Gust SpeedMPH,PrecipitationIn,Events,Conditions,WindDirDegrees,DateUTC
12:53 AM,27.0,19.0,72,30.46,10.0,Calm,Calm,-,N/A,,Overcast,0,2013-11-29 05:53:00
1:53 AM,26.1,19.9,78,30.46,10.0,Calm,Calm,-,N/A,,Overcast,0,2013-11-29 06:53:00
2:53 AM,26.1,19.9,78,30.46,10.0,Calm,Calm,-,N/A,,Overcast,0,2013-11-29 07:53:00
3:53 AM,26.1,19.9,78,30.47,10.0,Calm,Calm,-,N/A,,Overcast,0,2013-11-29 08:53:00
4:53 AM,25.0,19.9,81,30.48,10.0,Calm,Calm,-,N/A,,Overcast,0,2013-11-29 09:53:00
5:53 AM,25.0,19.9,81,30.49,10.0,Calm,Calm,-,N/A,,Overcast,0,2013-11-29 10:53:00
6:53 AM,23.0,19.0,85,30.52,10.0,Calm,Calm,-,N/A,,Overcast,0,2013-11-29 11:53:00
7:53 AM,24.1,19.9,84,30.55,10.0,Calm,Calm,-,N/A,,Mostly Cloudy,0,2013-11-29 12:53:00
8:53 AM,28.9,19.0,67,30.58,10.0,North,4.6,-,N/A,,Clear,10,2013-11-29 13:53:00
9:53 AM,30.9,17.1,57,30.59,10.0,North,5.8,-,N/A,,Clear,10,2013-11-29 14:53:00
10:53 AM,33.1,18.0,54,30.59,10.0,NW,6.9,-,N/A,,Clear,320,2013-11-29 15:53:00
11:53 AM,34.0,17.1,50,30.58,10.0,NW,3.5,-,N/A,,Clear,310,2013-11-29 16:53:00
12:53 PM,35.1,17.1,48,30.58,10.0,NW,5.8,-,N/A,,Partly Cloudy,310,2013-11-29 17:53:00
1:53 PM,35.1,17.1,48,30.58,10.0,NNW,4.6,-,N/A,,Partly Cloudy,330,2013-11-29 18:53:00
2:53 PM,35.1,16.0,46,30.59,10.0,NW,6.9,-,N/A,,Mostly Cloudy,310,2013-11-29 19:53:00
3:53 PM,32.0,16.0,52,30.61,10.0,Calm,Calm,-,N/A,,Mostly Cloudy,0,2013-11-29 20:53:00
4:53 PM,30.0,18.0,61,30.64,10.0,Calm,Calm,-,N/A,,Overcast,0,2013-11-29 21:53:00
5:53 PM,26.1,18.0,71,30.66,10.0,Calm,Calm,-,N/A,,Clear,0,2013-11-29 22:53:00
6:53 PM,25.0,18.0,75,30.68,10.0,Calm,Calm,-,N/A,,Clear,0,2013-11-29 23:53:00
7:53 PM,21.9,17.1,82,30.70,9.0,East,4.6,-,N/A,,Clear,100,2013-11-30 00:53:00
8:53 PM,21.9,17.1,82,30.71,10.0,Calm,Calm,-,N/A,,Clear,0,2013-11-30 01:53:00
9:53 PM,21.9,14.0,72,30.72,10.0,North,3.5,-,N/A,,Clear,360,2013-11-30 02:53:00
10:53 PM,19.9,14.0,78,30.74,10.0,Calm,Calm,-,N/A,,Clear,0,2013-11-30 03:53:00
11:53 PM,19.0,14.0,81,30.74,10.0,Calm,Calm,-,N/A,,Clear,0,2013-11-30 04:53:00